Location: Chmeln�
(49.6483°N, 14.9871°E)
Time: 04:26:10
(UTC+00:00)

Cosmos 2034 Rocket - Pass Details

Date: 18 September 2020
Orbit: 957 x 1002 km, 82.9° (Epoch: 29 October)

Event Time Altitude Azimuth Distance (km) Brightness Sun altitude
Rises 18:54:21 0° 185° (S) 3,713 6.8 -17.8°
Reaches altitude 10° 18:56:52 10° 185° (S) 2,767 6.2 -18.1°
Maximum altitude 19:03:15 86° 98° (E) 1,009 4.0 -19.1°
Drops below altitude 10° 19:09:38 10° 10° (N) 2,770 6.6 -20.0°
Sets 19:12:09 0° 10° (N) 3,718 7.3 -20.4°
